Starlink 30355

operational
NORAD ID: 57777 Int'l Des: 2023-134 Owner: SPXS Country: US Constellation: starlink
LEOCIRCULAR

Starlink 30355について

説明を読み込み中...

リアルタイム位置

3D地球を読み込み中...

次回通過

高度履歴

Altitude vs Time

uPlot chart will show altitude changes over time

軌道要素

1 57777U 23134G 25258.74510590 .00000358 00000-0 41574-4 0 9990
2 57777 43.0043 68.2000 0001074 253.7021 106.3703 15.02540419113148
Epoch: Sep 15, 2025 • Age: 58 hours

現在のステータス

高度 562.8 km
速度 7.59 km/s
衛星直下点 42.64°N, 102.37°E
打ち上げ日 Sep 4, 2023
運用期間 2 years
タイプ internet

技術仕様

分類 Payload
質量 730.00 kg
乾燥質量 700.00 kg
総質量 730.00 kg
長さ 0.30 m
直径 4.10 m
スパン 29.00 m
形状 Box + pan
製造者 SPXS
バスタイプ Starlink V2M
フェーズステータス In Orbit
所有者/国 SPXS/US

大規模コンステレーション

Loading constellations...